#timestamp,LO_Frequency,Hit,StdDev 
1516507215.1,286047111.1,N
1516507235.9,286047111.5,N
1516507255.7,286047108.8,N
1516507275.5,286047109.1,N
1516507295.3,286047108.6,N
1516507315.2,286047109.2,N
1516507335.0,286047110.0,N
1516507335.9,286047110.0,N
1516507355.7,286047110.0,Y
1516507375.6,286047007.6,P
1516507395.4,286047007.6,N
1516507415.2,286047004.8,N
1516507435.1,286047005.1,N
1516507436.0,286047005.1,N
1516507455.8,286047004.6,N
1516507475.6,286047004.6,N
1516507495.5,286047005.3,N
1516507515.3,286047005.3,N
1516507535.1,286047005.0,N
1516507555.9,286047004.8,N
1516507575.7,286047005.8,N
1516507595.5,286047005.5,N
1516507615.4,286047005.2,N
1516507635.2,286047005.3,N
1516507655.0,286047006.0,N
1516507655.9,286047006.0,N
1516507675.8,286047002.9,N
1516507695.6,286047005.7,N
1516507715.4,286047005.8,N
1516507735.2,286047003.0,N
1516507755.1,286047003.0,N
1516507756.0,286047003.0,N
1516507775.8,286047005.8,N
1516507795.6,286047005.6,N
1516507815.5,286047003.4,N
1516507835.3,286047003.4,N
1516507855.1,286047005.5,N
1516507875.9,286047005.8,N
1516507895.7,286047003.3,N
1516507915.5,286047003.4,N
1516507935.4,286047006.0,Y
1516507955.2,286046998.5,P
1516507975.0,286046998.9,N
1516507975.9,286046998.9,N
1516507995.8,286046998.9,N
1516508015.6,286046998.6,N
1516508035.4,286046998.5,N
1516508055.2,286046999.3,N
1516508075.1,286046999.4,N
1516508076.0,286046999.4,N
1516508095.8,286046998.4,N
1516508115.6,286046998.8,N
1516508135.5,286046999.2,N
1516508155.3,286046999.5,N
1516508175.1,286046999.0,N
1516508195.9,286046999.3,N
1516508215.7,286046996.5,N
1516508235.5,286046996.6,N
1516508255.4,286046999.0,N
1516508275.2,286046999.4,N
1516508295.0,286046996.6,N
1516508295.9,286046996.6,N
1516508315.8,286046996.6,N
1516508335.6,286046999.4,N
1516508355.4,286046999.2,N
1516508375.2,286046997.0,N
1516508395.1,286046996.8,N
1516508396.0,286046996.8,N
1516508415.8,286046999.5,N
1516508435.6,286046996.5,N
1516508455.5,286046997.2,N
1516508475.3,286046997.3,N
1516508495.1,286046996.7,N
1516508515.9,286046996.7,N
1516508535.7,286046997.8,N
1516508555.5,286046997.6,N
1516508575.4,286046997.2,N
1516508595.2,286046997.2,N
1516508615.0,286046998.0,N
1516508615.9,286046998.0,N
1516508635.8,286046994.9,Y
1516508655.6,286046998.1,P
1516508675.4,286046998.3,P
1516508695.3,286046999.1,P
1516508715.1,286046999.5,N
1516508716.0,286046999.5,N
1516508735.8,286046999.0,N
1516508755.7,286046999.0,N
1516508775.5,286046996.9,Y
1516508795.3,286046998.8,P
1516508815.2,286046998.6,P
1516508835.9,286046998.4,P
1516508855.7,286046999.1,Y
1516508875.6,286047001.2,P
1516508895.4,286047000.9,N
1516508915.2,286047000.7,N
1516508935.1,286046998.6,N
1516508936.0,286046998.6,N
1516508955.8,286046998.3,N
1516508975.6,286047000.7,N
1516508995.4,286047001.1,N
1516509015.3,286046998.7,N
1516509035.1,286046998.8,N
1516509055.8,286046998.6,N
1516509075.7,286046998.3,N
1516509095.5,286046998.3,N
1516509115.3,286046998.3,N
1516509135.2,286046998.1,N
1516509155.9,286046998.2,N
1516509175.7,286046998.8,N
1516509195.6,286046998.7,N
1516509215.4,286046998.2,N
1516509235.2,286046998.5,N
1516509255.1,286046998.8,N
1516509256.0,286046998.8,N
1516509275.8,286046998.9,N
1516509295.6,286046998.9,N
1516509315.4,286046998.8,N
1516509335.3,286046999.5,N
1516509355.1,286046999.6,N
1516509375.8,286046999.3,N
1516509395.7,286046999.1,N
1516509415.5,286046996.9,Y
1516509435.3,286046998.9,P
1516509455.2,286046998.3,P
1516509475.0,286046998.3,P
1516509475.9,286046998.3,Y
1516509495.7,286047000.7,P
1516509515.6,286047000.8,N
1516509535.4,286047000.6,N
1516509555.2,286047000.5,N
1516509575.1,286046998.1,N
1516509576.0,286046998.1,N
1516509595.8,286046998.1,N
1516509615.6,286047000.9,N
1516509635.5,286047001.0,N
1516509655.3,286046998.5,N
1516509675.1,286046998.5,N
1516509695.9,286047000.8,N
1516509715.7,286047000.7,N
1516509735.5,286046998.2,N
1516509755.4,286046998.5,N
1516509775.2,286047000.7,N
1516509795.0,286047001.1,N
1516509795.9,286047001.1,N
1516509815.8,286046998.4,N
1516509835.6,286046998.4,N
1516509855.4,286047001.2,N
1516509875.2,286046998.1,N
1516509895.1,286046998.8,N
1516509896.0,286046998.8,N
1516509915.8,286046998.8,N
1516509935.6,286046998.5,N
1516509955.5,286046998.6,N
1516509975.3,286046999.0,N
1516509995.1,286046999.4,N
1516510015.9,286046998.4,N
1516510035.7,286046998.4,N
1516510055.5,286046999.3,N
1516510075.4,286046999.1,N
1516510095.2,286046998.7,N
1516510115.0,286046998.8,N
1516510115.9,286046998.8,N
1516510135.8,286046999.2,N
1516510155.6,286046999.2,N
1516510175.4,286046998.8,N
1516510195.3,286046998.9,N
1516510215.1,286046999.6,N
1516510216.0,286046999.6,N
1516510235.8,286046996.5,Y
1516510255.7,286046998.5,P
1516510275.5,286046998.2,P
1516510295.3,286046998.8,P
1516510315.2,286046998.9,Y
1516510335.9,286047000.0,P
1516510355.7,286047000.3,N
1516510375.6,286047000.8,N
1516510395.4,286047000.7,N
1516510415.2,286047000.4,N
1516510435.0,286047000.3,N
1516510435.9,286047000.3,N
1516510455.8,286047001.1,N
1516510475.6,286047001.1,N
1516510495.4,286047000.5,N
1516510515.3,286047000.9,N
1516510535.1,286047001.2,N
1516510555.8,286046998.1,Y
1516510575.7,286047001.2,P
1516510595.5,286046998.1,P
1516510615.3,286046998.4,N
1516510635.2,286046998.8,N
1516510655.9,286046998.2,N
1516510675.7,286046998.1,N
1516510695.6,286046998.4,N
1516510715.4,286046998.3,N
1516510735.2,286046998.2,N
1516510755.1,286046998.6,N
1516510756.0,286046998.6,N
1516510775.8,286046998.4,N
1516510795.6,286046998.8,N
